NUSAT-4 (ADA) (43195 NORAD) Tracking and Keplerian Element Data

This shows tracking and keplerian element data for the satellite.

Feedback or suggestion? Click here.




ElementValue
Catalog43195
NameNUSAT-4 (ADA)
Epoch Orbit20288
Epoch Day269.19696147
Epoch Year2021
RAAN43.0161
Inclination97.5005
Eccentricity0.0015005
Argument of Perigee258.3667
Mean Anonmoly224.0491
Mean Motion15.26259692
Decay Rate3.33E-05
L11 43195U 18015D 21269.19696147 .00003330 00000-0 13104-3 0 9991
L22 43195 97.5005 43.0161 0015005 258.3667 224.0491 15.26259692202882

Live tracking and technical data element details for NUSAT-4 (ADA) (NORAD 43195). NUSAT-4 (ADA) can be tracked NOW for your location showing map with azimuth and elevation plus other details from your city location.

Track the satellite on the map from your city or location and see movement details for azimuth, elevation, latitude, longitude, range, height, and movement on the map or in text.







IsCatalogInMostPopularTable: catalog: 43195, numindb: 592
Update: records affected: 1



GetName: 43195 NUSAT-4 (ADA)

Hit Count: updated at: Mon, 27 Sep 2021 00:50:21 GMT